Regional Weather Roundup
Issued by NWS Upton, NY

Current Version | Previous Version | Graphics & Text | Print | Product List | Glossary Off
Versions: 1 2 3 4 5 6 7 8 9 10 11 12 13 14 15 16 17 18 19 20 21 22 23 24 25 26 27 28 29 30 31 32 33 34 35 36 37 38 39 40 41 42 43 44 45 46 47 48 49 50

000
ASUS41 KOKX 220809
RWROKX

REGIONAL WEATHER ROUNDUP
NATIONAL WEATHER SERVICE NEW YORK NY
400 AM EDT MON MAY 22 2017

NOTE: "FAIR" INDICATES FEW OR NO CLOUDS BELOW 12,000 FEET WITH NO
SIGNIFICANT WEATHER AND/OR OBSTRUCTIONS TO VISIBILITY.

NYZ071-072-176-178-NJZ106-104-220900-
NEW YORK CITY METRO AREA

CITY           SKY/WX    TMP DP  RH WIND       PRES   REMARKS
Central Park   RAIN      53  51  93 CALM      30.22F FOG
Wall St Helipt LGT RAIN  57  50  77 VRB3      30.20F
Bronx Bot Gard   N/A     54  48  82 E2        30.20F
LaGuardia APRT LGT RAIN  59  48  67 SE7       30.18F
Kennedy INTL   CLOUDY    57  50  77 SE3       30.21S
Breezy Point     N/A     55 N/A N/A SE6         N/A
Newark/Liberty HVY RAIN  55  50  83 E3        30.18F
Teterboro      HVY RAIN  54  50  86 CALM      30.18F FOG
$$

NYZ177-179-078>081-220900-
LONG ISLAND NEW YORK

CITY           SKY/WX    TMP DP  RH WIND       PRES   REMARKS
Jones Beach      N/A     55 N/A N/A SE5         N/A
Matinecock PT    N/A     54 N/A N/A CALM        N/A
Farmingdale    CLOUDY    55  46  71 S5        30.20F
MacArthur/ISP  CLOUDY    55  46  71 SE3       30.20S
Shirley        LGT RAIN  54  48  80 CALM      30.22S
Mt Sinai Harb    N/A     55 N/A N/A MISG        N/A
Westhampton    CLOUDY    54  46  74 CALM      30.23S
East Hampton   CLOUDY    53  44  70 SE6       30.20F
Montauk          N/A     55  46  71 VRB3      30.23S
$$

NYZ052-065-067-220900-
HUDSON VALLEY

CITY           SKY/WX    TMP DP  RH WIND       PRES   REMARKS
White Plains   LGT RAIN  52  49  89 E3        30.19F
Larchmont Harb   N/A     54 N/A N/A SE6         N/A
Croton O-T Hud   N/A     54 N/A N/A SE1         N/A
Newburgh       CLOUDY    55  43  62 S12       30.19F
Montgomery     CLOUDY    55  44  66 S6        30.16F
Poughkeepsie   CLOUDY    55  40  56 S6        30.17F
Albany         LGT RAIN  54  39  57 S13       30.13S
$$

NJZ001-105-106-008-010-013-015-019>022-104-220900-
NEW JERSEY

CITY           SKY/WX    TMP DP  RH WIND       PRES   REMARKS
Newark/Liberty HVY RAIN  55  50  83 E3        30.18F
Teterboro      HVY RAIN  54  50  86 CALM      30.18F FOG
Caldwell       CLOUDY    55  49  80 CALM      30.20S
Somerville     CLOUDY    54  51  90 CALM      30.16F
Linden         RAIN      56  48  74 CALM      30.19F
Perth Amboy      N/A     55 N/A N/A SE8         N/A
Sussex         CLOUDY    55  45  68 VRB5      30.17F
Andover          N/A     53  46  77 VRB3      30.16F
Trenton        LGT RAIN  55  50  83 E5        30.16F
Millville      LGT RAIN  56  55  97 E6        30.14F
Atlantic City  LGT RAIN  58  52  80 E5        30.15F
Wrightstown    LGT RAIN  54  52  94 NE5       30.14F
Toms River     LGT RAIN  55  52  89 CALM      30.18F
Belmar         CLOUDY    56  49  77 SE5       30.19F
$$

PAZ047>061-062-071-220900-
EASTERN PENNSYLVANIA

CITY           SKY/WX    TMP DP  RH WIND       PRES   REMARKS
Philadelphia   LGT RAIN  56  51  84 E7        30.17F
Allentown      CLOUDY    57  47  69 SE7       30.16F
Scranton       CLOUDY    57  43  59 VRB5      30.12F
$$

CTZ002-004>006-009-010-012-RIZ004-006-007-MAZ004-011-015-220900-
SOUTHERN NEW ENGLAND
 IN CT

CITY           SKY/WX    TMP DP  RH WIND       PRES   REMARKS
Bradley INTL   LGT RAIN  53  43  68 S6        30.21S
Hartford       LGT RAIN  54  45  71 S5        30.22R
Danbury        LGT RAIN  50  45  83 SE3       30.22S
Wtrbury/Oxford   N/A     50  43  76 S3        30.22S
Bridgeport     LGT RAIN  56  45  66 S6        30.21S
Meriden        LGT RAIN  52  47  83 CALM      30.21F
New Haven      LGT RAIN  54  44  69 CALM      30.22S
Chester        DRIZZLE   52  46  82 CALM      30.22S
Groton         LGT RAIN  54  48  80 E3        30.21S
Wilimantic     LGT RAIN  53  46  77 SE3       30.22S

 IN RI

CITY           SKY/WX    TMP DP  RH WIND       PRES   REMARKS
Providence     CLOUDY    53  47  79 SW5       30.22F
Block Island   CLOUDY    53  43  68 S8        30.22S
Westerly       CLOUDY    55  48  77 S3        30.23R
 IN MA

CITY           SKY/WX    TMP DP  RH WIND       PRES   REMARKS
Boston         CLOUDY    55  36  48 SW6       30.22S
Worcester      NOT AVBL
Westfield      CLOUDY    51  45  79 S6        30.20S
Provincetown   LGT RAIN  53  45  74 S6        30.24S
Nantucket      CLOUDY    51  36  56 S6        30.24S
$$

ANZ330-335-338-340-345-350-353-355-220900-
COASTAL MARINE OBSERVATIONS


STATION/POSITION TIME  SKY/WX   TEMP    WIND        PRES    VSBY  WAVE
                                AIR SEA DIR/SP/G                  HT/PER
                 (UTC)          (F)     (DEG/KT/KT) (MB)    (MI)  (FT/S)
NY HARB ENTRANCE 0650            56 56  130/  8/ 10 1022.5          2/ 6
20 S FIRE ISLAND 0750            54 54  120/  8/ 10 1021.7          2/ 5
GREAT SOUTH BAY  0730            56 65  150/  6/  8   N/A
23 SSW MONTAUK P 0650            54 55              1023.3          2/ 6
15 E BARNEGAT LI 0730               56                N/A           3/ 5
HUDSON CANYON    0650            55 53  130/  8/  8 1022.3          3/ 6
KINGS POINT      0742            55 58  170/  3/  4 1022.6
EXECUTION ROCKS  0745            56                   N/A
CENTRAL LI SOUND 0730            56     170/  6/  8   N/A           0
EASTERN LI SOUND NOT AVBL
ROBBINS REEF     0742            56     140/ 10/ 11 1023.0
$$


>>>>>>>>>>>>>>>>>>>>>>>>>>>> KEY <<<<<<<<<<<<<<<<<<<<<<<<<<<
>                                                          <
>     SKY/WX - Sky Condition/Present Weather               <
>     TMP    - Temperature in Fahrenheit                   <
>     DP     - Dew Point in Fahrenheit                     <
>     RH     - Relative Humidity in Percent                <
>     WIND   - Direction (from) and Speed in MPH           <
>     PRES   - Mean Sea Level Pressure (inches of Hg)      <
>     WCI    - Wind Chill Index                            <
>     VSB    - VISIBILITY IN MILES                         <
>     HX     - HEAT INDEX                                  <
>     TC     - TEMPERATURE IN CELSIUS                      <
>     VRB    - VARIABLE WIND DIRECTION                     <
>                                                          <
>>>>>>>>>>>>>>>>>>>>>>>>>>>> KEY <<<<<<<<<<<<<<<<<<<<<<<<<<<



USA.gov is the U.S. government's official web portal to all federal, state and local government web resources and services.